Flag for U.S.A. Weather past 2 weeks in Menominee, Michigan, U.S.A.

46 °F


Feels Like: 44 °F
Forecast: 32 / 44 °F
Wind: 5 mph from Southwest

Location: Menominee Weather Reporting Station

Current Time: Nov 26, 2015 at 3:54:24 AM

Latest Report: Nov 26, 2015 at 3:35 AM

Visibility: 10 mi

Pressure: 30.13 "Hg

Humidity: 76%

Dew point: 39 °F

Location of MenomineeLocation

Historic Weather in Menominee — Graph


Menominee temperature yesterday

Maximum temperature yesterday: 48 °F (at 11:15 AM)
Minimum temperature yesterday: 39 °F (at 12:15 AM)
Average temperature yesterday: 44 °F

Past Weeks' High & Low Weather Summary

High55 °F (Nov 11, 7:15 PM)94% (Nov 12, 7:55 AM)30.32 "Hg (Nov 12, 7:55 AM)
Low16 °F (Nov 22, 6:15 AM)35% (Nov 20, 2:35 PM)29.09 "Hg (Nov 12, 5:35 AM)
Average40 °F68%29.91 "Hg
* Reported Nov 11 2:15 AM — Nov 26 2:55 AM, Menominee, Weather by CustomWeather, © 2015

Note: Actual official high and low records may vary slightly from our data, if they occured in-between our weather recording intervals... More about our weather records


Menominee weather history for previous 24 hours

Time TempWeatherWind HumidityBarometerVisibility
2:55 AM
Thu, Nov 26
45 °FOvercast.3 mph81%30.12 "Hg10 mi
2:35 AM45 °FOvercast.5 mph81%30.12 "Hg10 mi
2:15 AM45 °FOvercast.6 mph81%30.12 "Hg10 mi
1:55 AM45 °FMostly cloudy.5 mph81%30.12 "Hg10 mi
1:35 AM45 °FOvercast.5 mph76%30.12 "Hg10 mi
1:15 AM45 °FOvercast.6 mph76%30.11 "Hg10 mi
12:35 AM46 °FOvercast.6 mph71%30.10 "Hg10 mi
12:15 AM46 °FOvercast.6 mph71%30.11 "Hg10 mi
11:55 PM
Wed, Nov 25
46 °FMostly cloudy.5 mph71%30.11 "Hg10 mi
11:35 PM46 °FOvercast.7 mph71%30.10 "Hg10 mi
10:55 PM46 °FOvercast.8 mph71%30.10 "Hg10 mi
10:35 PM46 °FOvercast.9 mph71%30.10 "Hg10 mi
9:55 PM46 °FOvercast.8 mph71%30.10 "Hg10 mi
9:15 PM46 °FOvercast.7 mph71%30.10 "Hg10 mi
8:55 PM46 °FOvercast.12 mph66%30.09 "Hg10 mi
8:35 PM46 °FOvercast.9 mph71%30.08 "Hg10 mi
8:15 PM46 °FOvercast.9 mph71%30.08 "Hg10 mi
7:55 PM45 °FOvercast.12 mph76%30.08 "Hg10 mi
7:35 PM45 °FOvercast.9 mph76%30.08 "Hg10 mi
7:15 PM45 °FOvercast.6 mph76%30.08 "Hg10 mi
6:35 PM45 °FMostly cloudy.10 mph76%30.07 "Hg10 mi
6:15 PM45 °FMostly cloudy.13 mph76%30.06 "Hg9 mi
5:55 PM46 °FMostly cloudy.10 mph71%30.06 "Hg10 mi
5:35 PM46 °FMostly cloudy.10 mph71%30.05 "Hg10 mi
5:15 PM46 °FOvercast.12 mph66%30.05 "Hg10 mi
4:55 PM46 °FOvercast.10 mph66%30.04 "Hg10 mi
4:35 PM46 °FMostly cloudy.10 mph66%30.03 "Hg10 mi
4:15 PM46 °FMostly cloudy.8 mph71%30.03 "Hg10 mi
3:55 PM46 °FOvercast.9 mph71%30.02 "Hg10 mi
3:35 PM46 °FOvercast.9 mph71%30.03 "Hg10 mi
2:55 PM46 °FMostly cloudy.14 mph66%30.03 "Hg10 mi
2:35 PM46 °FOvercast.14 mph66%30.03 "Hg10 mi
2:15 PM46 °FMostly cloudy.14 mph66%30.03 "Hg10 mi
1:55 PM48 °FCloudy.10 mph62%30.04 "Hg10 mi
1:35 PM48 °FOvercast.14 mph58%30.05 "Hg10 mi
1:15 PM48 °FMostly cloudy.12 mph58%30.05 "Hg10 mi
12:55 PM48 °FMostly cloudy.9 mph58%30.05 "Hg10 mi
12:35 PM48 °FOvercast.13 mph58%30.06 "Hg10 mi
12:15 PM48 °FOvercast.16 mph58%30.06 "Hg10 mi
11:55 AM48 °FPartly sunny.13 mph58%30.06 "Hg10 mi
11:35 AM48 °FPassing clouds.18 mph58%30.07 "Hg10 mi
11:15 AM48 °FPassing clouds.13 mph58%30.07 "Hg10 mi
10:55 AM46 °FSunny.13 mph62%30.08 "Hg10 mi
10:35 AM46 °FScattered clouds.14 mph62%30.08 "Hg10 mi
10:15 AM46 °FPassing clouds.16 mph62%30.10 "Hg10 mi
9:55 AM46 °FSunny.16 mph66%30.10 "Hg10 mi
9:35 AM45 °FSunny.14 mph71%30.10 "Hg10 mi
9:15 AM45 °FSunny.13 mph71%30.10 "Hg10 mi
8:55 AM45 °FScattered clouds.14 mph71%30.11 "Hg10 mi
8:35 AM45 °FOvercast.14 mph76%30.10 "Hg9 mi
8:15 AM43 °FOvercast.13 mph81%30.11 "Hg7 mi
7:55 AM43 °FOvercast.13 mph81%30.11 "Hg6 mi
7:35 AM43 °FOvercast.10 mph81%30.11 "Hg5 mi
7:15 AM43 °FOvercast.10 mph81%30.12 "Hg5 mi
6:55 AM41 °FPartly sunny.10 mph87%30.12 "Hg4 mi
6:35 AM41 °FScattered clouds.10 mph87%30.12 "Hg5 mi
6:15 AM43 °FOvercast.13 mph81%30.12 "Hg5 mi
5:55 AM43 °FOvercast.14 mph81%30.12 "Hg5 mi
5:35 AM43 °FPassing clouds.13 mph81%30.13 "Hg5 mi
5:15 AM41 °FPassing clouds.12 mph87%30.13 "Hg5 mi
4:55 AM41 °FPassing clouds.10 mph81%30.15 "Hg5 mi
4:35 AM41 °FPassing clouds.13 mph87%30.14 "Hg5 mi
4:15 AM39 °FPassing clouds.13 mph87%30.15 "Hg7 mi
3:55 AM39 °FClear.9 mph87%30.16 "Hg9 mi
3:35 AM39 °FClear.12 mph87%30.16 "Hg10 mi
3:15 AM39 °FClear.13 mph87%30.16 "Hg10 mi
Weather by CustomWeather, © 2015

See weather overviewHow to use our weather pages